BAW433 EHAM-EGLL

Flight info

Callsign BAW433
Flight time 0h 43m
Altitude 24000
Route IDRID L980 LOGAN
Aircraft A319/M-SDE3FGIJ1KRWXY/LB1

Departure

Time 2026-04-30 13:13
Airport Amsterdam Airport Schiphol (EHAM)

Arrival

Time 2026-04-30 13:57
Airport London Heathrow Airport (EGLL)
Time Latitude Longitude Altitude Speed Heading
2026-04-30 12:33 52.30709 4.77155 -1 ft 0 kts
2026-04-30 12:56 52.30704 4.77155 -1 ft 3 kts
2026-04-30 12:56 52.30678 4.77155 -1 ft 4 kts 349°
2026-04-30 12:56 52.30654 4.77170 -1 ft 4 kts 311°
2026-04-30 12:56 52.30647 4.77190 -1 ft 0 kts 273°
2026-04-30 13:02 52.30648 4.77155 -21 ft 7 kts 273°
2026-04-30 13:02 52.30636 4.77061 -1 ft 10 kts 231°
2026-04-30 13:02 52.30568 4.77068 -1 ft 12 kts 149°
2026-04-30 13:03 52.30505 4.77135 -1 ft 9 kts 149°
2026-04-30 13:03 52.30467 4.77224 -1 ft 12 kts 82°
2026-04-30 13:03 52.30511 4.77340 -1 ft 14 kts 56°
2026-04-30 13:03 52.30569 4.77487 -1 ft 16 kts 57°
2026-04-30 13:04 52.30651 4.77584 -1 ft 17 kts
2026-04-30 13:04 52.30776 4.77599 -1 ft 19 kts
2026-04-30 13:04 52.30918 4.77611 -1 ft 22 kts
2026-04-30 13:04 52.31068 4.77624 -1 ft 20 kts
2026-04-30 13:05 52.31211 4.77638 -1 ft 21 kts
2026-04-30 13:05 52.31363 4.77653 -1 ft 22 kts
2026-04-30 13:05 52.31473 4.77612 -1 ft 16 kts 324°
2026-04-30 13:06 52.31577 4.77356 -1 ft 15 kts 274°
2026-04-30 13:06 52.31571 4.77172 -1 ft 17 kts 266°
2026-04-30 13:06 52.31563 4.76976 -1 ft 18 kts 266°
2026-04-30 13:06 52.31557 4.76762 -1 ft 19 kts 268°
2026-04-30 13:07 52.31548 4.76534 -1 ft 21 kts 266°
2026-04-30 13:07 52.31540 4.76293 -1 ft 22 kts 266°
2026-04-30 13:07 52.31531 4.76038 -1 ft 23 kts 266°
2026-04-30 13:07 52.31521 4.75768 -1 ft 25 kts 267°
2026-04-30 13:08 52.31515 4.75558 -1 ft 17 kts 267°
2026-04-30 13:08 52.31508 4.75353 -1 ft 19 kts 266°
2026-04-30 13:08 52.31503 4.75209 -1 ft 20 kts 266°
2026-04-30 13:08 52.31496 4.74983 -1 ft 21 kts 267°
2026-04-30 13:09 52.31487 4.74739 -1 ft 22 kts 266°
2026-04-30 13:09 52.31478 4.74483 -1 ft 23 kts 266°
2026-04-30 13:09 52.31473 4.74260 -1 ft 11 kts 273°
2026-04-30 13:09 52.31523 4.74156 -1 ft 13 kts 343°
2026-04-30 13:10 52.31622 4.74160 -1 ft 16 kts
2026-04-30 13:10 52.31739 4.74172 -1 ft 18 kts
2026-04-30 13:10 52.31874 4.74183 -1 ft 21 kts
2026-04-30 13:10 52.32025 4.74195 -1 ft 23 kts
2026-04-30 13:11 52.32196 4.74213 -1 ft 25 kts
2026-04-30 13:11 52.32379 4.74230 -1 ft 28 kts
2026-04-30 13:11 52.32582 4.74247 -1 ft 26 kts
2026-04-30 13:11 52.32663 4.74213 -1 ft 12 kts 304°
2026-04-30 13:12 52.32652 4.74103 -1 ft 10 kts 215°
2026-04-30 13:12 52.32582 4.74034 -2 ft 14 kts 210°
2026-04-30 13:12 52.32527 4.73962 -2 ft 8 kts 226°
2026-04-30 13:13 52.32237 4.73925 -2 ft 65 kts 182°
2026-04-30 13:13 52.31572 4.73865 -2 ft 125 kts 183°
2026-04-30 13:13 52.29476 4.73734 831 ft 155 kts 176°
2026-04-30 13:14 52.28383 4.73582 1350 ft 169 kts 187°
2026-04-30 13:14 52.27357 4.72326 1705 ft 205 kts 230°
2026-04-30 13:14 52.25607 4.68026 2665 ft 252 kts 231°
2026-04-30 13:15 52.24580 4.65569 3410 ft 270 kts 233°
2026-04-30 13:15 52.23229 4.59637 5476 ft 283 kts 246°
2026-04-30 13:15 52.22595 4.56576 6468 ft 286 kts 246°
2026-04-30 13:16 52.21949 4.53477 7384 ft 291 kts 246°
2026-04-30 13:16 52.21290 4.50323 8301 ft 296 kts 247°
2026-04-30 13:16 52.20617 4.47117 9224 ft 301 kts 247°
2026-04-30 13:17 52.19233 4.40548 10917 ft 313 kts 248°
2026-04-30 13:17 52.18494 4.37062 11255 ft 337 kts 248°
2026-04-30 13:17 52.16883 4.29487 12246 ft 364 kts 248°
2026-04-30 13:18 52.16049 4.25557 12975 ft 369 kts 249°
2026-04-30 13:18 52.14355 4.17563 14401 ft 378 kts 249°
2026-04-30 13:18 52.13479 4.13449 15061 ft 382 kts 249°
2026-04-30 13:19 52.12605 4.09352 15728 ft 385 kts 249°
2026-04-30 13:19 52.11718 4.05229 16398 ft 388 kts 248°
2026-04-30 13:19 52.10821 4.01071 17066 ft 391 kts 248°
2026-04-30 13:19 52.09916 3.96889 17737 ft 394 kts 248°
2026-04-30 13:20 52.08999 3.92671 18398 ft 397 kts 248°
2026-04-30 13:20 52.08075 3.88421 19039 ft 399 kts 248°
2026-04-30 13:20 52.07149 3.84152 19644 ft 402 kts 248°
2026-04-30 13:20 52.06222 3.79864 20245 ft 404 kts 248°
2026-04-30 13:21 52.05286 3.75538 20840 ft 407 kts 249°
2026-04-30 13:21 52.04344 3.71182 21413 ft 410 kts 249°
2026-04-30 13:21 52.03389 3.66785 21987 ft 413 kts 249°
2026-04-30 13:22 52.01445 3.57932 23092 ft 420 kts 249°
2026-04-30 13:22 52.00456 3.53452 23622 ft 422 kts 248°
2026-04-30 13:22 51.97616 3.45128 24270 ft 423 kts 231°
2026-04-30 13:23 51.95898 3.41320 24322 ft 415 kts 231°
2026-04-30 13:23 51.92505 3.33844 24314 ft 410 kts 231°
2026-04-30 13:24 51.89122 3.26429 24316 ft 409 kts 231°
2026-04-30 13:24 51.85970 3.18765 24304 ft 412 kts 243°
2026-04-30 13:25 51.84450 3.09831 24289 ft 416 kts 263°
2026-04-30 13:25 51.83864 3.00527 24294 ft 416 kts 263°
2026-04-30 13:26 51.82928 2.86587 24290 ft 416 kts 262°
2026-04-30 13:26 51.82300 2.77228 24290 ft 416 kts 262°
2026-04-30 13:27 51.81674 2.67939 24291 ft 416 kts 262°
2026-04-30 13:28 51.80722 2.54002 24288 ft 416 kts 262°
2026-04-30 13:28 51.80075 2.44720 24289 ft 416 kts 262°
2026-04-30 13:28 51.79743 2.40074 24295 ft 416 kts 262°
2026-04-30 13:29 51.79072 2.30794 24297 ft 416 kts 261°
2026-04-30 13:29 51.78399 2.21515 24298 ft 416 kts 262°
2026-04-30 13:30 51.77556 2.07550 24294 ft 417 kts 263°
2026-04-30 13:31 51.77043 1.98233 24289 ft 417 kts 263°
2026-04-30 13:31 51.76209 1.84265 24292 ft 417 kts 262°
2026-04-30 13:32 51.75628 1.74968 24295 ft 416 kts 262°
2026-04-30 13:32 51.75048 1.65703 23835 ft 413 kts 262°
2026-04-30 13:33 51.74472 1.56562 23178 ft 404 kts 262°
2026-04-30 13:33 51.73900 1.47634 22289 ft 396 kts 262°
2026-04-30 13:34 51.73616 1.43243 21837 ft 391 kts 261°
2026-04-30 13:34 51.72767 1.30288 20443 ft 380 kts 261°
2026-04-30 13:35 51.72486 1.26069 19971 ft 377 kts 261°
2026-04-30 13:35 51.71933 1.17712 19005 ft 372 kts 261°
2026-04-30 13:36 51.71383 1.09463 17982 ft 368 kts 261°
2026-04-30 13:36 51.71107 1.05389 17493 ft 364 kts 261°
2026-04-30 13:36 51.70549 0.97351 16538 ft 358 kts 261°
2026-04-30 13:37 51.70269 0.93335 16064 ft 363 kts 260°
2026-04-30 13:37 51.69704 0.85204 14904 ft 364 kts 260°
2026-04-30 13:38 51.69139 0.77112 13748 ft 362 kts 260°
2026-04-30 13:38 51.68855 0.73089 13177 ft 360 kts 260°
2026-04-30 13:38 51.68290 0.65132 12074 ft 356 kts 260°
2026-04-30 13:39 51.67728 0.57288 11284 ft 343 kts 260°
2026-04-30 13:39 51.67199 0.49946 11017 ft 319 kts 259°
2026-04-30 13:40 51.66944 0.46431 10726 ft 314 kts 259°
2026-04-30 13:40 51.66685 0.42934 10367 ft 313 kts 259°
2026-04-30 13:40 51.66423 0.39447 9865 ft 315 kts 259°
2026-04-30 13:40 51.66248 0.37099 9630 ft 310 kts 259°
2026-04-30 13:41 51.65908 0.32558 9239 ft 305 kts 259°
2026-04-30 13:41 51.65655 0.29188 9239 ft 302 kts 259°
2026-04-30 13:41 51.65401 0.25827 9243 ft 303 kts 259°
2026-04-30 13:41 51.65147 0.22477 9240 ft 297 kts 259°
2026-04-30 13:42 51.64908 0.19255 9239 ft 283 kts 259°
2026-04-30 13:42 51.64753 0.17166 9241 ft 274 kts 258°
2026-04-30 13:42 51.64348 0.11153 9244 ft 269 kts 260°
2026-04-30 13:43 51.64187 0.08152 9244 ft 269 kts 261°
2026-04-30 13:43 51.64031 0.05152 9245 ft 269 kts 261°
2026-04-30 13:43 51.63874 0.02146 9244 ft 269 kts 261°
2026-04-30 13:43 51.63714 -0.00845 9304 ft 269 kts 260°
2026-04-30 13:44 51.63551 -0.03837 9301 ft 268 kts 260°
2026-04-30 13:44 51.63388 -0.06820 9305 ft 267 kts 260°
2026-04-30 13:44 51.63223 -0.09802 9311 ft 267 kts 260°
2026-04-30 13:44 51.63058 -0.12775 9316 ft 267 kts 260°
2026-04-30 13:45 51.62720 -0.18714 9324 ft 267 kts 260°
2026-04-30 13:45 51.62546 -0.21692 9330 ft 267 kts 260°
2026-04-30 13:45 51.62369 -0.24669 9258 ft 267 kts 260°
2026-04-30 13:46 51.62195 -0.27644 9171 ft 267 kts 260°
2026-04-30 13:46 51.62021 -0.30608 9027 ft 266 kts 260°
2026-04-30 13:46 51.61845 -0.33598 8794 ft 264 kts 260°
2026-04-30 13:46 51.61673 -0.36539 8667 ft 263 kts 260°
2026-04-30 13:47 51.61505 -0.39440 8539 ft 259 kts 260°
2026-04-30 13:47 51.61336 -0.42302 8416 ft 261 kts 259°
2026-04-30 13:47 51.61159 -0.45256 8292 ft 261 kts 259°
2026-04-30 13:47 51.60985 -0.48158 8164 ft 260 kts 259°
2026-04-30 13:48 51.60811 -0.51051 8040 ft 260 kts 259°
2026-04-30 13:48 51.60634 -0.53950 7916 ft 260 kts 259°
2026-04-30 13:48 51.60457 -0.56836 7789 ft 259 kts 259°
2026-04-30 13:48 51.60281 -0.59717 7667 ft 258 kts 259°
2026-04-30 13:49 51.60105 -0.62579 7538 ft 257 kts 259°
2026-04-30 13:49 51.59931 -0.65433 7419 ft 256 kts 259°
2026-04-30 13:49 51.59754 -0.68279 7297 ft 256 kts 259°
2026-04-30 13:49 51.59575 -0.71126 7095 ft 256 kts 259°
2026-04-30 13:50 51.59397 -0.73962 6835 ft 255 kts 259°
2026-04-30 13:50 51.58045 -0.78791 6287 ft 232 kts 208°
2026-04-30 13:50 51.56578 -0.79617 5975 ft 221 kts 179°
2026-04-30 13:51 51.55052 -0.79563 5608 ft 219 kts 174°
2026-04-30 13:51 51.53539 -0.79476 5234 ft 217 kts 174°
2026-04-30 13:51 51.52032 -0.79391 4855 ft 216 kts 174°
2026-04-30 13:51 51.50529 -0.79308 4504 ft 216 kts 173°
2026-04-30 13:52 51.49019 -0.79201 4145 ft 217 kts 169°
2026-04-30 13:52 51.47740 -0.78164 3819 ft 207 kts 128°
2026-04-30 13:52 51.47314 -0.76019 3490 ft 209 kts 87°
2026-04-30 13:52 51.47608 -0.73726 3174 ft 202 kts 85°
2026-04-30 13:53 51.47654 -0.71517 2924 ft 196 kts 92°
2026-04-30 13:53 51.47653 -0.69339 2661 ft 195 kts 91°
2026-04-30 13:53 51.47660 -0.67174 2392 ft 191 kts 91°
2026-04-30 13:53 51.47671 -0.65071 2178 ft 186 kts 91°
2026-04-30 13:54 51.47681 -0.63033 1911 ft 180 kts 91°
2026-04-30 13:54 51.47691 -0.61060 1665 ft 174 kts 91°
2026-04-30 13:54 51.47701 -0.59178 1441 ft 162 kts 91°
2026-04-30 13:54 51.47710 -0.57444 1236 ft 146 kts 91°
2026-04-30 13:55 51.47717 -0.55952 1049 ft 126 kts 92°
2026-04-30 13:55 51.47724 -0.54561 856 ft 124 kts 90°
2026-04-30 13:55 51.47729 -0.53181 687 ft 122 kts 90°
2026-04-30 13:55 51.47734 -0.51856 553 ft 119 kts 92°
2026-04-30 13:56 51.47738 -0.50536 413 ft 117 kts 91°
2026-04-30 13:56 51.47748 -0.49208 213 ft 121 kts 89°
2026-04-30 13:56 51.47753 -0.47869 88 ft 110 kts 90°
2026-04-30 13:56 51.47757 -0.46839 90 ft 73 kts 90°
2026-04-30 13:57 51.47757 -0.46255 89 ft 22 kts 93°
2026-04-30 13:57 51.47708 -0.46149 89 ft 13 kts 147°
2026-04-30 13:57 51.47639 -0.46075 87 ft 8 kts 152°
2026-04-30 13:57 51.47596 -0.46121 87 ft 10 kts 257°
2026-04-30 13:58 51.47594 -0.46252 86 ft 13 kts 269°
2026-04-30 13:58 51.47591 -0.46590 86 ft 17 kts 269°
2026-04-30 13:58 51.47591 -0.46778 86 ft 16 kts 269°
2026-04-30 13:59 51.47583 -0.46946 86 ft 16 kts 270°
2026-04-30 13:59 51.47582 -0.47131 86 ft 17 kts 269°
2026-04-30 13:59 51.47582 -0.47335 90 ft 19 kts 271°
2026-04-30 13:59 51.47580 -0.47555 86 ft 21 kts 269°
2026-04-30 14:00 51.47575 -0.47794 86 ft 23 kts 270°
2026-04-30 14:00 51.47578 -0.48214 86 ft 15 kts 269°
2026-04-30 14:00 51.47577 -0.48386 86 ft 11 kts 270°
2026-04-30 14:01 51.47553 -0.48466 88 ft 8 kts 209°
2026-04-30 14:01 51.47503 -0.48475 86 ft 8 kts 179°
2026-04-30 14:01 51.47445 -0.48473 86 ft 8 kts 179°
2026-04-30 14:01 51.47389 -0.48474 86 ft 8 kts 181°
2026-04-30 14:02 51.47336 -0.48474 86 ft 7 kts 180°
2026-04-30 14:02 51.47285 -0.48473 86 ft 8 kts 180°
2026-04-30 14:02 51.47241 -0.48477 86 ft 5 kts 199°
2026-04-30 14:02 51.47232 -0.48523 86 ft 5 kts 274°
2026-04-30 14:03 51.47233 -0.48570 86 ft 3 kts 270°
2026-04-30 14:03 51.47233 -0.48586 86 ft 1 kts 270°
2026-04-30 14:03 51.47233 -0.48588 86 ft 0 kts 270°